Satellite-Ground Cal/Val Region Overpasses Predictions

Prediction of Satellite NPP Overpassing Cal/Val Region: PacNW

Region Location: (Latitude: 10.00, Longitude: 139.50) to (Latitude: 22.70, Longitude: 165.60).

Table of predicted overpasses for the next 14.0 days since TLE Epoch: 7/4/2021
Interval Starting Time Starting Location Ending Time Ending Location
1 07/04/2021 15:49:19 ( 22.69, 147.56) 07/04/2021 15:52:55 ( 10.01, 144.54)
2 07/05/2021 02:58:25 ( 10.04, 155.07) 07/05/2021 03:02:00 ( 22.66, 152.07)
3 07/05/2021 15:30:18 ( 22.65, 152.31) 07/05/2021 15:33:53 ( 10.03, 149.30)
4 07/06/2021 02:39:23 ( 10.02, 159.83) 07/06/2021 02:42:59 ( 22.70, 156.81)
5 07/06/2021 15:11:17 ( 22.67, 157.07) 07/06/2021 15:14:52 ( 10.05, 154.06)
6 07/07/2021 02:20:23 ( 10.06, 164.58) 07/07/2021 02:23:58 ( 22.68, 161.57)
7 07/07/2021 14:52:15 ( 22.69, 161.83) 07/07/2021 14:55:51 ( 10.01, 158.81)
8 07/08/2021 03:42:51 ( 10.04, 143.96) 07/08/2021 03:46:26 ( 22.66, 140.96)
9 07/08/2021 14:34:23 ( 18.67, 165.59) 07/08/2021 14:36:50 ( 10.04, 163.57)
10 07/08/2021 16:14:45 ( 22.65, 141.20) 07/08/2021 16:16:44 ( 15.67, 139.50)
11 07/09/2021 03:23:50 ( 10.02, 148.72) 07/09/2021 03:27:26 ( 22.70, 145.70)
12 07/09/2021 15:55:43 ( 22.67, 145.96) 07/09/2021 15:59:18 ( 10.05, 142.95)
13 07/10/2021 03:04:49 ( 10.05, 153.47) 07/10/2021 03:08:24 ( 22.67, 150.46)
14 07/10/2021 15:36:42 ( 22.69, 150.72) 07/10/2021 15:40:18 ( 10.02, 147.70)
15 07/11/2021 02:45:48 ( 10.03, 158.23) 07/11/2021 02:49:23 ( 22.65, 155.23)
16 07/11/2021 15:17:41 ( 22.66, 155.47) 07/11/2021 15:21:16 ( 10.04, 152.46)
17 07/12/2021 02:26:46 ( 10.01, 162.99) 07/12/2021 02:30:22 ( 22.69, 159.97)
18 07/12/2021 14:58:40 ( 22.68, 160.23) 07/12/2021 15:02:15 ( 10.06, 157.22)
19 07/13/2021 02:10:21 ( 19.15, 165.60) 07/13/2021 02:11:21 ( 22.67, 164.73)
20 07/13/2021 03:49:16 ( 10.05, 142.36) 07/13/2021 03:52:41 ( 22.09, 139.50)
21 07/13/2021 14:39:39 ( 22.70, 164.99) 07/13/2021 14:43:15 ( 10.02, 161.97)
22 07/13/2021 16:21:09 ( 22.69, 139.61) 07/13/2021 16:21:16 ( 22.28, 139.51)
23 07/14/2021 03:30:14 ( 10.03, 147.12) 07/14/2021 03:33:49 ( 22.66, 144.12)
24 07/14/2021 16:02:08 ( 22.65, 144.36) 07/14/2021 16:05:43 ( 10.03, 141.35)
25 07/15/2021 03:11:13 ( 10.02, 151.88) 07/15/2021 03:14:49 ( 22.70, 148.86)
26 07/15/2021 15:43:07 ( 22.67, 149.12) 07/15/2021 15:46:42 ( 10.05, 146.11)
27 07/16/2021 02:52:12 ( 10.06, 156.63) 07/16/2021 02:55:47 ( 22.68, 153.62)
28 07/16/2021 15:24:05 ( 22.69, 153.88) 07/16/2021 15:27:41 ( 10.01, 150.86)
29 07/17/2021 02:33:11 ( 10.04, 161.39) 07/17/2021 02:36:46 ( 22.66, 158.38)
30 07/17/2021 15:05:05 ( 22.65, 158.62) 07/17/2021 15:08:40 ( 10.03, 155.62)
